Regional Weather Roundup
Issued by NWS Memphis, TN

Home | Current Version | Previous Version | Text Only | Print | Product List | Glossary On
Versions: 1 2 3 4 5 6 7 8 9 10 11 12 13 14 15 16 17 18 19 20 21 22 23 24 25 26 27 28 29 30 31 32 33 34 35 36 37 38 39 40 41 42 43 44 45 46 47 48 49 50
000
ASUS44 KMEG 020810
RWRMEG
MEMPHIS CWA HOURLY WEATHER ROUNDUP
NATIONAL WEATHER SERVICE MEMPHIS TN
300 AM CDT THU JUL 02 2015

...WEST TENNESSEE...

CITY           SKY/WX    TMP DP  RH WIND       PRES   REMARKS
MEMPHIS INTL   CLOUDY    80  72  76 SW9       29.91S
NWS MEMPHIS      N/A     80 N/A N/A MISG        N/A
JACKSON        CLOUDY    76  71  85 SW9       29.90F
LEXINGTON      CLEAR     73  72  94 SW8       29.90F
DYERSBURG        N/A    N/A N/A N/A MISG        N/A
PARIS          CLEAR     70  68  94 S7        29.88F


...EASTERN ARKANSAS...

CITY           SKY/WX    TMP DP  RH WIND       PRES   REMARKS
JONESBORO      LGT RAIN  78  73  84 SW9       29.87F
WEST MEMPHIS   CLOUDY    79  74  84 SW6       29.89F
BATESVILLE     CLOUDY    79  72  78 SE5       29.87S
NEWPORT        CLOUDY    79  74  84 CALM      29.90R
WALNUT RIDGE   CLOUDY    77  72  83 SW7       29.88S
BLYTHEVILLE    CLOUDY    79  74  84 SW13      29.87F
SEARCY         CLOUDY    79  73  82 S6        29.88F
STUTTGART      CLOUDY    79  72  78 S14       29.89S
PINE BLUFF     CLOUDY    78  70  76 SW10      29.92F
MONTICELLO     CLOUDY    78  73  84 SW8       29.95R


...NORTH MISSISSIPPI...

CITY           SKY/WX    TMP DP  RH WIND       PRES   REMARKS
TUPELO         CLOUDY    78  72  81 SW10      29.95S
OXFORD         CLOUDY    75  68  78 SW8       29.96F
TUNICA         CLOUDY    79  72  78 S9        29.93S
CLARKSDALE     CLOUDY    77  75  94 S10       29.93F
CORINTH        CLOUDY    77  72  83 SW8       29.92F
GREENWOOD      CLOUDY    76  71  85 SW8       29.97S
COLUMBUS       CLOUDY    76  71  85 S5        29.97F
STARKVILLE     FAIR      73  70  88 CALM      29.99S
GOLDEN TRIANGL MOCLDY    73  70  88 SW5       29.98S


...SOUTHEAST MISSOURI...

CITY           SKY/WX    TMP DP  RH WIND       PRES   REMARKS
WEST PLAINS    TSTM      70  67  90 W7G23     29.95R FOG
CAPE GIRARDEAU LGT RAIN  71  69  93 E6        29.86F


...NORTHWEST ALABAMA...

CITY           SKY/WX    TMP DP  RH WIND       PRES   REMARKS
MUSCLE SHOALS  CLOUDY    73  69  87 SW6       29.95F


...MIDDLE TENNESSEE...

CITY           SKY/WX    TMP DP  RH WIND       PRES   REMARKS
NASHVILLE      CLOUDY    72  72 100 S6        29.91F
CLARKSVILLE    CLOUDY    71  70  96 SW5       29.88F


...WESTERN KENTUCKY...

CITY           SKY/WX    TMP DP  RH WIND       PRES   REMARKS
PADUCAH        TSTM      71  69  93 N12       29.88S FOG
FORT CAMPBELL  CLOUDY    71  70  95 S8        29.87F


...CENTRAL ARKANSAS...

CITY           SKY/WX    TMP DP  RH WIND       PRES   REMARKS
LITTLE ROCK    CLOUDY    80  71  74 SW14      29.88F


SKY/WX REPORTED AS FAIR MEANS FEW OR NO CLOUDS BELOW
12 THOUSAND FEET.




USA.gov is the U.S. government's official web portal to all federal, state and local government web resources and services.